Regional Weather Roundup
Issued by NWS

Home | Current Version | Previous Version | Graphics & Text | Print | Product List | Glossary On
Versions: 1 2 3 4 5 6 7 8 9 10 11 12 13 14 15 16 17 18 19 20 21 22 23 24 25 26 27 28 29 30 31 32 33 34 35 36 37 38 39 40 41 42 43 44 45 46 47 48 49 50
609
ASUS45 KSLC 190410
RWRUT

UTAH REGIONAL WEATHER ROUNDUP
NATIONAL WEATHER SERVICE SALT LAKE CITY UT
1000 PM MDT FRI AUG 18 2017

UTZ001>011-023>025-190500-

NORTHERN UTAH

CITY           SKY/WX    TMP DP  RH WIND       PRES   REMARKS
BRIGHAM CITY     N/A     76  33  21 CALM      30.08R
HILL AFB         N/A     74  30  19 E10       30.11R
LOGAN            N/A     68  43  40 E7        30.09R
OGDEN            N/A     72  37  28 S8        30.07R
SALT LAKE CITY   N/A     78  39  24 S7        30.06R
TOOELE VALLEY    N/A     63  43  48 S10       30.09S
WENDOVER         N/A     78  35  21 VRB3      30.06R
HEBER CITY       N/A     64  37  36 E7        30.17R
WEST JORDAN      N/A     73  48  40 W7        30.10S

$$

UTZ011>015-024>027-190500-

CENTRAL/NORTHEAST UTAH

CITY           SKY/WX    TMP DP  RH WIND       PRES   REMARKS
PROVO AIRPORT    N/A     76  52  43 N9        30.09R
MOAB/CANYONLAN   N/A     78  27  15 W3        30.04R
DELTA            N/A     79  32  18 N5        30.08S
PRICE            N/A     71  35  26 NW7       30.18R
ROOSEVELT        N/A     70  45  40 CALM      30.14R
VERNAL           N/A     73  45  36 NW8       30.12R

$$

UTZ013>016-019>022-027-190500-

SOUTHERN UTAH

CITY           SKY/WX    TMP DP  RH WIND       PRES   REMARKS
BRYCE CANYON     N/A     57  41  55 VRB5      30.35S
CEDAR CITY       N/A     76  40  27 SE8       30.16R
MILFORD          N/A     76  34  21 CALM      30.10R
ST GEORGE        N/A     86  42  21 SE3       29.94R
HANKSVILLE       N/A     73  30  20 E5        30.07R
BLANDING         N/A     68  35  29 N10       30.25S

$$

REGIONAL REPORTS     COLORADO/ARIZONA

CITY           SKY/WX    TMP DP  RH WIND       PRES   REMARKS
CRAIG, CO        N/A     63  28  26 CALM      30.21R
GRAND JUNCTION   N/A     73  29  19 E3        30.09R
RIFLE, CO        N/A     72  28  19 E6        30.16R
MONTROSE, CO     N/A     69  43  38 SE8       30.20R
CORTEZ, CO       N/A     63  35  35 NE9       30.20R
COLORADO CITY    N/A     77  43  29 N3        30.13R
PAGE, AZ         N/A     85  35  16 SE3       30.03R
GRAND CANYON     N/A     56  37  49 CALM      30.29R
KINGMAN, AZ      N/A     79  36  21 S10       30.03R
FLAGSTAFF, AZ    N/A     58  40  51 CALM      30.33R

$$

REGIONAL REPORTS    NEVADA/IDAHO/WYOMING

CITY           SKY/WX    TMP DP  RH WIND       PRES   REMARKS
LAS VEGAS, NV    N/A     96  34  11 SW3       29.89R HX  91
ELY, NY          N/A     77  33  20 S17G23    30.22R
ELKO, NV         N/A     71  29  21 CALM      30.12R
POCATELLO, ID    N/A     66  31  27 S10       30.09R
BURLEY, ID       N/A     63  45  51 S6        30.05R
FORT BRIDGER,    N/A     65  28  24 W10       30.31S
EVANSTON, WY     N/A     62  28  27 W10       30.30R
ROCK SPRINGS,    N/A     68  28  22 SW8       30.25R
KEMMERER, WY     N/A     61  28  29 NW3       30.30S

$$




USA.gov is the U.S. government's official web portal to all federal, state and local government web resources and services.